Powrót do katalogu

DELTA 2 DEB

LostHEO
NORAD 28264·DEBRIS·🇺🇸 United States

Wystrzelony Mar 31, 2003 z Cape Canaveral Space Force Station

Loading…

Następne Przeloty (najbliższe 24 godziny)

TLE

NieaktualneSource: Space-Track

Epoka: Jun 28, 2022, 13:21 UTC

1 28264U 03010D   22179.55673163  .00028491  00000-0  42417-3 0  9998
2 28264  39.0515   1.6043 4578283 168.8401 230.6526  6.49668988361464

Śledź DELTA 2 DEB w czasie rzeczywistym z AllMySat

Download on the App Store